Location: Lac de la Montange Noire
(46.1952°N, 74.2701°W)
Time: 08:40:31
(UTC-05:00)

Iridium 42 - Visible Passes

Search period start: 09 February 2016 00:00
Search period end: 19 February 2016 00:00
Orbit: 775 x 778 km, 86.4° (Epoch: 08 February)

Date Brightness Start Highest point End Pass type
(mag) Time Alt. Az. Time Alt. Az. Time Alt. Az.
09 Feb 8.4 04:40:14 10° ESE 04:43:23 16° ENE 04:46:32 10° NE visible
09 Feb 5.5 06:18:17 10° SSW 06:23:28 68° W 06:28:41 10° N visible
09 Feb 7.6 18:26:22 10° NNW 18:30:53 30° W 18:35:23 10° SW visible
10 Feb 5.9 05:44:33 10° S 05:49:43 69° E 05:54:55 10° N visible
10 Feb 6.5 17:52:14 10° NNW 17:57:18 53° W 18:02:21 10° SSW visible
11 Feb 7.0 05:11:18 10° SSE 05:16:05 38° E 05:20:54 10° NNE visible
11 Feb 8.7 19:01:18 10° NW 19:03:30 13° WNW 19:05:42 10° W visible
12 Feb 7.9 04:38:37 10° SE 04:42:34 22° E 04:46:33 10° NNE visible
12 Feb 5.7 06:17:53 10° SSW 06:22:55 49° W 06:27:59 10° N visible
12 Feb 8.2 18:26:09 10° NNW 18:30:07 22° W 18:34:04 10° SW visible
13 Feb 8.6 04:06:58 10° E 04:09:12 13° ENE 04:11:26 10° NE visible
13 Feb 5.5 05:43:53 10° S 05:49:06 87° W 05:54:21 10° N visible
13 Feb 7.2 17:51:48 10° NNW 17:56:37 38° W 18:01:23 10° SSW visible
14 Feb 6.3 05:10:21 10° SSE 05:15:23 53° E 05:20:28 10° NNE visible
15 Feb 7.4 04:37:19 10° SE 04:41:49 30° E 04:46:20 10° NNE visible
15 Feb 6.1 06:17:39 10° SW 06:22:24 36° W 06:27:12 10° NNW visible
15 Feb 8.5 18:26:10 10° NW 18:29:18 16° WNW 18:32:27 10° WSW visible
16 Feb 8.2 04:04:57 10° ESE 04:08:21 18° ENE 04:11:46 10° NE visible
16 Feb 5.5 05:43:22 10° SSW 05:48:31 63° W 05:53:42 10° N visible
16 Feb 7.9 17:51:29 10° NNW 17:55:51 28° W 18:00:14 10° SW visible
17 Feb 5.7 05:09:32 10° S 05:14:44 75° E 05:19:57 10° N visible
18 Feb 6.8 04:36:13 10° SSE 04:41:04 42° E 04:45:58 10° NNE visible
18 Feb 6.4 06:17:36 10° SW 06:21:57 26° WNW 06:26:18 10° NNW visible
18 Feb 8.8 18:26:42 10° NW 18:28:27 12° WNW 18:30:11 10° W visible
